Terminal Aerodrome Forecast
Issued by NWS Omaha/Valley, NE

Home | Current Version | Previous Version | Text Only | Print | Product List | Glossary Off
Versions: 1 2 3 4 5 6 7 8 9 10 11 12 13 14 15 16 17 18 19 20 21 22 23 24 25 26 27 28 29 30 31 32 33 34 35 36 37

000
FTUS43 KOAX 251600 AAB
TAFOFK
TAF AMD
KOFK 251600Z 2516/2612 28011KT 6SM -RA BR OVC040
     FM251700 35016G22KT P6SM BKN030
      TEMPO 2517/2520 5SM -SN
     FM260200 36020G30KT P6SM BKN035=

USA.gov is the U.S. government's official web portal to all federal, state and local government web resources and services.